Preview of NWS' New Version of Forecast
This preview is not operational and should not be used for support decisions.

Regional Weather Roundup (RWR)

Issued by National Weather Service (NWS)

                            
000
ASUS43 KLSX 182057
RWRMO 

WEATHER SUMMARY FOR MISSOURI
NATIONAL WEATHER SERVICE SPRINGFIELD MO
300 PM CST MON FEB 18 2019

NOTE: "FAIR" INDICATES FEW OR NO CLOUDS BELOW 12,000 FEET WITH NO
       SIGNIFICANT WEATHER AND/OR OBSTRUCTIONS TO VISIBILITY.
       CURRENT SKY AND/OR WEATHER CONDITIONS ARE NOT AVAILABLE FOR
       CHILLICOTHE AND FARMINGTON.

MOZ001>031-035>038-043-044-053-054-182200-
...NORTHERN AND WESTERN MISSOURI...
  
CITY           SKY/WX    TMP DP  RH WIND       PRES   REMARKS
KANSAS CTY INT PTSUNNY   25  16  68 N7        30.48S WCI  17          
LEE'S SUMMIT   MOSUNNY   27  17  66 N8        30.47R WCI  19          
ST JOSEPH      PTSUNNY   24  18  77 NW7       30.50S WCI  16          
CHILLICOTHE      N/A     28  18  66 N7        30.49F WCI  21          
     
$$
MOZ066>068-077>081-088>096-101>105-182200-
...SOUTHWEST MISSOURI...
  
CITY           SKY/WX    TMP DP  RH WIND       PRES   REMARKS
SPRINGFIELD    SUNNY     34  19  54 N5        30.41S WCI  30          
JOPLIN         CLOUDY    33  19  56 N6        30.46R WCI  28          
BRANSON        PTSUNNY   32  18  55 CALM      30.41S                  
               
$$
MOZ032>034-039>042-045>050-055>058-069>072-182200-
...CENTRAL MISSOURI...  
  
CITY           SKY/WX    TMP DP  RH WIND       PRES   REMARKS
COLUMBIA       NOT AVBL                                               
JEFFERSON CITY CLOUDY    29  17  61 W5        30.48R WCI  24          
ROLLA          MOSUNNY   28  17  63 N8        30.43R WCI  20          
WARRENSBURG    CLOUDY    28  18  64 CALM      30.48S                  
               
$$
MOZ051-052-059>065-182200-
...EAST CENTRAL MISSOURI...
  
CITY           SKY/WX    TMP DP  RH WIND       PRES   REMARKS
ST LOUIS INTL  CLOUDY    30  19  63 NW7       30.46R WCI  23          
                   
$$
MOZ072>076-082>087-097>100-106>115-182200-
...SOUTH CENTRAL AND SOUTHEAST MISSOURI...
  
CITY           SKY/WX    TMP DP  RH WIND       PRES   REMARKS
CAPE GIRARDEAU FAIR      35  21  56 N10       30.45R WCI  27          
POPLAR BLUFF   FAIR      40  22  48 NW3       30.43R                  
WEST PLAINS    MOSUNNY   35  22  58 NW8       30.41R WCI  29          
                                       
$$